Back to catalog

STARLINK-2666

AliveCommunicationsVLEO
NORAD 48666·PAYLOAD·🇺🇸 United States

Launched May 26, 2021 from Cape Canaveral Space Force Station

Loading…

Next Passes (next 24 hours)

TLE

FreshSource: CelesTrak SupGP

Epoch: Sep 14, 2026, 21:40 UTC

1 48666C 21044AE  26257.90326389 -.00007176  00000+0 -23076-3 0  2573
2 48666  53.1580 314.9518 0001238  78.0931 135.7397 15.31706413    14

Track STARLINK-2666 in real time with AllMySat

Download on the App Store